Météo par heure à Alkmaar

Ce jour, 15 Mai, Samedi

Heure Température Précipitation Vent Pression Humidité
00:00 +7°C° 0 mm 1 m/s 755 mmHg 93%
01:00 +6°C° 0 mm 1 m/s 754 mmHg 94%
02:00 +6°C° 0 mm 1 m/s 754 mmHg 94%
03:00 +5°C° 0 mm 0 m/s 754 mmHg 95%
04:00 +6°C° 0 mm 0 m/s 754 mmHg 93%
05:00 +7°C° 0 mm 0 m/s 753 mmHg 90%
06:00 +8°C° 0 mm 0 m/s 753 mmHg 88%
07:00 +10°C° 0 mm 1 m/s 753 mmHg 84%
08:00 +11°C° 0 mm 1 m/s 753 mmHg 79%
09:00 +12°C° 0 mm 2 m/s 753 mmHg 74%
10:00 +12°C° 0.1 mm 2 m/s 752 mmHg 74%
11:00 +13°C° 0.1 mm 2 m/s 752 mmHg 73%
12:00 +13°C° 0.1 mm 1 m/s 751 mmHg 73%
13:00 +13°C° 0.4 mm 1 m/s 751 mmHg 77%
14:00 +12°C° 0.4 mm 2 m/s 751 mmHg 81%
15:00 +12°C° 0.4 mm 2 m/s 751 mmHg 86%
16:00 +10°C° 0.5 mm 2 m/s 750 mmHg 89%
17:00 +10°C° 0.5 mm 2 m/s 750 mmHg 91%
18:00 +9°C° 0.5 mm 2 m/s 750 mmHg 94%
19:00 +9°C° 0 mm 2 m/s 750 mmHg 95%
20:00 +9°C° 0 mm 3 m/s 750 mmHg 95%
21:00 +8°C° 0 mm 3 m/s 749 mmHg 95%
22:00 +7°C° 0.1 mm 4 m/s 749 mmHg 96%
23:00 +8°C° 0.1 mm 4 m/s 749 mmHg 96%

Demain, 16 Mai, Dimanche

Heure Température Précipitation Vent Pression Humidité
00:00 +8°C° 0.1 mm 4 m/s 749 mmHg 96%
01:00 +8°C° 0.1 mm 5 m/s 749 mmHg 96%
02:00 +8°C° 0.1 mm 5 m/s 748 mmHg 96%
03:00 +8°C° 0.1 mm 6 m/s 748 mmHg 95%
04:00 +8°C° 0.4 mm 6 m/s 748 mmHg 95%
05:00 +8°C° 0.4 mm 6 m/s 748 mmHg 95%
06:00 +8°C° 0.4 mm 7 m/s 748 mmHg 94%
07:00 +9°C° 0.6 mm 7 m/s 749 mmHg 92%
08:00 +9°C° 0.6 mm 6 m/s 749 mmHg 90%
09:00 +10°C° 0.6 mm 6 m/s 749 mmHg 88%
10:00 +10°C° 0.2 mm 6 m/s 749 mmHg 82%
11:00 +11°C° 0.2 mm 6 m/s 749 mmHg 77%
12:00 +13°C° 0.2 mm 6 m/s 749 mmHg 71%
13:00 +13°C° 0 mm 6 m/s 749 mmHg 69%
14:00 +13°C° 0 mm 6 m/s 749 mmHg 66%
15:00 +13°C° 0 mm 5 m/s 749 mmHg 64%
16:00 +13°C° 0 mm 5 m/s 749 mmHg 68%
17:00 +12°C° 0 mm 4 m/s 749 mmHg 72%
18:00 +11°C° 0 mm 4 m/s 749 mmHg 76%
19:00 +10°C° 0 mm 4 m/s 749 mmHg 80%
20:00 +8°C° 0 mm 4 m/s 749 mmHg 84%
21:00 +8°C° 0 mm 3 m/s 749 mmHg 88%
22:00 +8°C° 0 mm 3 m/s 749 mmHg 89%
23:00 +8°C° 0 mm 3 m/s 749 mmHg 90%

Après-demain, 17 Mai, Lundi

Heure Température Précipitation Vent Pression Humidité
00:00 +8°C° 0 mm 3 m/s 749 mmHg 90%
01:00 +8°C° 0.9 mm 3 m/s 748 mmHg 93%
02:00 +9°C° 0.9 mm 3 m/s 748 mmHg 95%
03:00 +9°C° 0.9 mm 3 m/s 748 mmHg 97%
04:00 +9°C° 1.2 mm 2 m/s 748 mmHg 97%
05:00 +9°C° 1.2 mm 2 m/s 748 mmHg 97%
06:00 +10°C° 1.2 mm 1 m/s 748 mmHg 96%
07:00 +10°C° 0.3 mm 2 m/s 749 mmHg 91%
08:00 +11°C° 0.3 mm 3 m/s 749 mmHg 86%
09:00 +12°C° 0.3 mm 4 m/s 750 mmHg 81%
10:00 +13°C° 0.2 mm 4 m/s 750 mmHg 79%
11:00 +13°C° 0.2 mm 4 m/s 751 mmHg 78%
12:00 +13°C° 0.2 mm 5 m/s 751 mmHg 76%
13:00 +13°C° 0.1 mm 5 m/s 752 mmHg 76%
14:00 +13°C° 0.1 mm 4 m/s 752 mmHg 75%
15:00 +13°C° 0.1 mm 4 m/s 752 mmHg 74%
16:00 +12°C° 0 mm 4 m/s 753 mmHg 76%
17:00 +11°C° 0 mm 4 m/s 753 mmHg 78%
18:00 +11°C° 0 mm 3 m/s 753 mmHg 80%
19:00 +10°C° 0 mm 3 m/s 753 mmHg 84%
20:00 +8°C° 0 mm 2 m/s 754 mmHg 88%
21:00 +7°C° 0 mm 2 m/s 754 mmHg 92%
22:00 +7°C° 0 mm 2 m/s 754 mmHg 92%
23:00 +7°C° 0 mm 2 m/s 754 mmHg 92%

18 Mai, Mardi

Heure Température Précipitation Vent Pression Humidité
00:00 +7°C° 0 mm 2 m/s 754 mmHg 92%
01:00 +7°C° 0 mm 2 m/s 754 mmHg 92%
02:00 +7°C° 0 mm 2 m/s 754 mmHg 92%
03:00 +8°C° 0 mm 1 m/s 755 mmHg 92%
04:00 +9°C° 0 mm 1 m/s 755 mmHg 89%
05:00 +9°C° 0 mm 1 m/s 755 mmHg 87%
06:00 +10°C° 0 mm 1 m/s 756 mmHg 84%
07:00 +10°C° 0 mm 2 m/s 756 mmHg 81%
08:00 +11°C° 0 mm 3 m/s 757 mmHg 78%
09:00 +11°C° 0 mm 4 m/s 757 mmHg 75%
10:00 +12°C° 0.1 mm 5 m/s 757 mmHg 74%
11:00 +11°C° 0.1 mm 6 m/s 758 mmHg 73%
12:00 +12°C° 0.1 mm 7 m/s 758 mmHg 73%
13:00 +12°C° 0 mm 7 m/s 759 mmHg 69%
14:00 +11°C° 0 mm 6 m/s 759 mmHg 65%
15:00 +11°C° 0 mm 6 m/s 759 mmHg 61%
16:00 +12°C° 0 mm 5 m/s 760 mmHg 66%
17:00 +11°C° 0 mm 4 m/s 760 mmHg 72%
18:00 +11°C° 0 mm 3 m/s 760 mmHg 77%
19:00 +10°C° 0 mm 3 m/s 760 mmHg 81%
20:00 +9°C° 0 mm 3 m/s 760 mmHg 85%
21:00 +7°C° 0 mm 4 m/s 760 mmHg 89%
22:00 +7°C° 0.1 mm 4 m/s 760 mmHg 89%
23:00 +7°C° 0.1 mm 4 m/s 760 mmHg 89%

19 Mai, Mercredi

Heure Température Précipitation Vent Pression Humidité
00:00 +7°C° 0.1 mm 4 m/s 760 mmHg 88%
01:00 +7°C° 0.1 mm 4 m/s 760 mmHg 88%
02:00 +7°C° 0.1 mm 4 m/s 760 mmHg 88%
03:00 +7°C° 0.1 mm 5 m/s 760 mmHg 87%
04:00 +8°C° 0.1 mm 5 m/s 760 mmHg 86%
05:00 +9°C° 0.1 mm 5 m/s 760 mmHg 84%
06:00 +9°C° 0.1 mm 5 m/s 760 mmHg 83%
07:00 +10°C° 0.3 mm 6 m/s 761 mmHg 81%
08:00 +10°C° 0.3 mm 6 m/s 761 mmHg 80%
09:00 +11°C° 0.3 mm 7 m/s 761 mmHg 78%
10:00 +11°C° 0.1 mm 7 m/s 761 mmHg 74%
11:00 +11°C° 0.1 mm 7 m/s 761 mmHg 71%
12:00 +12°C° 0.1 mm 7 m/s 762 mmHg 67%
13:00 +12°C° 0 mm 7 m/s 762 mmHg 67%
14:00 +13°C° 0 mm 6 m/s 762 mmHg 67%
15:00 +11°C° 0 mm 6 m/s 762 mmHg 68%
16:00 +12°C° 0 mm 5 m/s 762 mmHg 71%
17:00 +12°C° 0 mm 5 m/s 762 mmHg 75%
18:00 +11°C° 0 mm 4 m/s 762 mmHg 79%
19:00 +10°C° 0 mm 4 m/s 762 mmHg 84%
20:00 +9°C° 0 mm 3 m/s 762 mmHg 89%
21:00 +8°C° 0 mm 3 m/s 762 mmHg 93%
22:00 +8°C° 0 mm 3 m/s 762 mmHg 94%
23:00 +8°C° 0 mm 3 m/s 762 mmHg 94%

20 Mai, Jeudi

Heure Température Précipitation Vent Pression Humidité
00:00 +8°C° 0 mm 3 m/s 762 mmHg 94%
01:00 +8°C° 0 mm 3 m/s 761 mmHg 95%
02:00 +8°C° 0 mm 3 m/s 761 mmHg 95%
03:00 +8°C° 0 mm 3 m/s 760 mmHg 96%
04:00 +8°C° 0.2 mm 4 m/s 760 mmHg 94%
05:00 +9°C° 0.2 mm 5 m/s 760 mmHg 92%
06:00 +10°C° 0.2 mm 5 m/s 760 mmHg 91%
07:00 +10°C° 0.2 mm 5 m/s 760 mmHg 87%
08:00 +10°C° 0.2 mm 5 m/s 759 mmHg 84%
09:00 +10°C° 0.2 mm 6 m/s 759 mmHg 81%
10:00 +9°C° 0.3 mm 6 m/s 759 mmHg 84%
11:00 +9°C° 0.3 mm 6 m/s 758 mmHg 87%
12:00 +8°C° 0.3 mm 7 m/s 758 mmHg 91%
13:00 +8°C° 0.2 mm 7 m/s 757 mmHg 91%
14:00 +8°C° 0.2 mm 7 m/s 756 mmHg 92%
15:00 +8°C° 0.2 mm 7 m/s 755 mmHg 92%
16:00 +9°C° 0.2 mm 7 m/s 754 mmHg 90%
17:00 +9°C° 0.2 mm 8 m/s 754 mmHg 88%
18:00 +10°C° 0.2 mm 8 m/s 753 mmHg 85%
19:00 +9°C° 0.3 mm 8 m/s 752 mmHg 88%
20:00 +9°C° 0.3 mm 8 m/s 752 mmHg 90%
21:00 +7°C° 0.3 mm 8 m/s 751 mmHg 92%
22:00 +7°C° 1 mm 8 m/s 750 mmHg 93%
23:00 +7°C° 1 mm 8 m/s 749 mmHg 94%
Voir plus

Nous avons besoin de votre consentement

Meteoprog et ses fournisseurs de services peuvent stocker et accéder à des données personnelles telles que des cookies, des identifiants d'appareils ou d'autres technologies similaires sur votre appareil et traiter ces données pour personnaliser le contenu et les publicités, ainsi que pour fournir des fonctionnalités de médias sociaux et analyser le trafic.

  • Stocker et/ou accéder à des informations sur votre appareil

    Des cookies, des identifiants d'appareils ou d'autres informations peuvent être stockés ou accessibles sur votre appareil aux fins indiquées ci-dessus.

  • Annonces et contenus personnalisés, mesure des annonces et des contenus, connaissance de l'audience et développement de produits

    Les annonces et le contenu peuvent être personnalisés en fonction d'un profil. D'autres données peuvent être ajoutées pour mieux personnaliser les annonces et le contenu. Les performances des publicités et du contenu peuvent être mesurées. Il est possible d'obtenir des informations sur le public qui a vu les publicités et le contenu. Ces données peuvent être utilisées pour développer ou améliorer l'expérience de l'utilisateur, les systèmes et les logiciels.

En cliquant sur "J'accepte", vous autorisez l'utilisation de cookies, des identifiants d'appareils, des balises web ou d'autres technologies similaires. Vos paramètres peuvent être modifiés dans le navigateur de votre appareil.

Dans certains cas, des intérêts légitimes peuvent être invoqués plutôt qu'un consentement. Vous pouvez en savoir plus à ce sujet dans notre Politique de confidentialité et de cookies.